FW0292 Weather Reports


time (UTC)temp
C
wind
direction
speed
KPH
gust
KPH
rain 1hr
cm
rain 24hr
cm
rain mn
cm
humidity
%
barometer
mb
20260507145002 22 89 3.2 8.0 0.00 0.00 0.00 61 1016.2
20260507144502 22 110 3.2 11.3 0.00 0.00 0.00 62 1016.2
20260507144002 21 129 3.2 11.3 0.00 0.00 0.00 62 1016.2
20260507143523 21 116 3.2 11.3 0.00 0.00 0.00 62 1016.3
20260507143002 21 128 3.2 12.9 0.00 0.00 0.00 61 1016.3
20260507142502 22 118 3.2 12.9 0.00 0.00 0.00 60 1016.3
20260507142002 22 93 4.8 11.3 0.00 0.00 0.00 60 1016.3
20260507141502 22 111 4.8 11.3 0.00 0.00 0.00 62 1016.3
20260507141002 22 114 3.2 11.3 0.00 0.00 0.00 62 1016.5
20260507140502 21 107 3.2 11.3 0.00 0.00 0.00 64 1016.5
20260507140003 21 126 3.2 11.3 0.00 0.00 0.00 64 1016.4
20260507135523 21 148 4.8 11.3 0.00 0.00 0.00 63 1016.5
20260507135002 21 137 3.2 11.3 0.00 0.00 0.00 63 1016.5
20260507134502 22 112 3.2 11.3 0.00 0.00 0.00 62 1016.5
20260507134002 21 97 4.8 11.3 0.00 0.00 0.00 62 1016.5
20260507133502 21 92 3.2 9.7 0.00 0.00 0.00 62 1016.6
20260507133023 21 78 4.8 8.0 0.00 0.00 0.00 62 1016.6
20260507132523 22 83 4.8 9.7 0.00 0.00 0.00 63 1016.5
20260507132002 22 116 3.2 9.7 0.00 0.00 0.00 62 1016.6
20260507131502 22 99 3.2 9.7 0.00 0.00 0.00 63 1016.6
20260507131002 22 96 3.2 12.9 0.00 0.00 0.00 63 1016.6
20260507130502 21 93 3.2 12.9 0.00 0.00 0.00 63 1016.7
20260507130002 21 103 3.2 6.4 0.00 0.00 0.00 64 1016.7
20260507125502 21 113 3.2 8.0 0.00 0.00 0.00 63 1016.7
20260507125002 21 113 3.2 11.3 0.00 0.00 0.00 64 1016.7
20260507124523 21 104 3.2 11.3 0.00 0.00 0.00 64 1016.7
20260507124002 21 96 4.8 11.3 0.00 0.00 0.00 66 1016.7
20260507123502 21 114 4.8 11.3 0.00 0.00 0.00 65 1016.7
20260507123002 21 122 3.2 9.7 0.00 0.00 0.00 64 1016.8
20260507122502 21 116 3.2 11.3 0.00 0.00 0.00 63 1016.8
20260507122023 21 138 3.2 11.3 0.00 0.00 0.00 63 1016.8
20260507121524 21 113 3.2 11.3 0.00 0.00 0.00 63 1016.8
20260507121002 21 90 4.8 11.3 0.00 0.00 0.00 64 1016.8
20260507120502 21 97 3.2 11.3 0.00 0.00 0.00 63 1016.8
20260507120002 21 104 3.2 8.0 0.00 0.00 0.00 64 1016.8
20260507115502 21 103 3.2 8.0 0.00 0.00 0.00 64 1016.8
20260507115002 21 106 3.2 9.7 0.00 0.00 0.00 64 1016.9
20260507114502 21 107 4.8 9.7 0.00 0.00 0.00 64 1016.8
20260507114023 21 113 3.2 9.7 0.00 0.00 0.00 64 1016.9
20260507113502 21 101 3.2 9.7 0.00 0.00 0.00 65 1016.8
20260507113024 21 95 3.2 11.3 0.00 0.00 0.00 67 1016.9
20260507112502 21 133 3.2 11.3 0.00 0.00 0.00 67 1016.9
20260507112002 20 129 4.8 12.9 0.00 0.00 0.00 66 1016.9
20260507111503 20 123 4.8 16.1 0.00 0.00 0.00 68 1017.0
20260507111023 20 122 3.2 16.1 0.00 0.00 0.00 67 1016.9
20260507110502 20 125 3.2 9.7 0.00 0.00 0.00 68 1016.9
20260507110002 20 128 3.2 14.5 0.00 0.00 0.00 68 1016.9
20260507105502 20 119 3.2 14.5 0.00 0.00 0.00 68 1016.9
20260507105023 20 119 3.2 11.3 0.00 0.00 0.00 69 1016.8
20260507104502 19 114 3.2 12.9 0.00 0.00 0.00 70 1016.9
20260507104003 19 128 3.2 12.9 0.00 0.00 0.00 69 1016.9
20260507103502 18 142 3.2 8.0 0.00 0.00 0.00 70 1016.9
20260507103002 18 130 3.2 9.7 0.00 0.00 0.00 70 1016.9
20260507102502 18 110 3.2 9.7 0.00 0.00 0.00 70 1016.9
20260507102002 18 119 3.2 9.7 0.00 0.00 0.00 71 1016.8
20260507101502 18 121 3.2 11.3 0.00 0.00 0.00 70 1016.9
20260507101002 17 110 3.2 11.3 0.00 0.00 0.00 70 1016.8
20260507100503 17 110 3.2 11.3 0.00 0.00 0.00 71 1016.8
20260507100003 17 115 3.2 11.3 0.00 0.00 0.00 71 1016.9
20260507095502 17 122 3.2 11.3 0.00 0.00 0.00 71 1016.8
20260507095002 17 97 3.2 11.3 0.00 0.00 0.00 71 1016.8
20260507094523 17 87 3.2 11.3 0.00 0.00 0.00 72 1016.8
20260507094002 17 91 4.8 11.3 0.00 0.00 0.00 72 1016.7
20260507093502 16 95 3.2 11.3 0.00 0.00 0.00 73 1016.7
20260507093002 16 101 3.2 6.4 0.00 0.00 0.00 73 1016.7
20260507092502 16 95 3.2 9.7 0.00 0.00 0.00 73 1016.7
20260507092003 16 89 4.8 9.7 0.00 0.00 0.00 74 1016.7
20260507091503 16 89 3.2 9.7 0.00 0.00 0.00 75 1016.8
20260507091002 15 90 3.2 9.7 0.00 0.00 0.00 76 1016.7
20260507090502 15 89 3.2 9.7 0.00 0.00 0.00 75 1016.8
20260507090023 15 90 3.2 9.7 0.00 0.00 0.00 75 1016.7
20260507085502 15 89 4.8 9.7 0.00 0.00 0.00 76 1016.8
20260507085002 15 89 3.2 9.7 0.00 0.00 0.00 77 1016.8
20260507084523 15 91 3.2 11.3 0.00 0.00 0.00 78 1016.7
20260507084002 14 95 3.2 11.3 0.00 0.00 0.00 79 1016.8
20260507083502 14 95 3.2 6.4 0.00 0.00 0.00 79 1016.9
20260507083002 13 96 3.2 6.4 0.00 0.00 0.00 79 1016.8
20260507082524 13 93 3.2 6.4 0.00 0.00 0.00 80 1016.9
20260507082003 13 94 3.2 6.4 0.00 0.00 0.00 80 1016.7
20260507081524 13 98 3.2 6.4 0.00 0.00 0.00 80 1016.6
20260507081003 13 94 3.2 6.4 0.00 0.00 0.00 80 1016.6
20260507080503 13 95 3.2 6.4 0.00 0.00 0.00 81 1016.7
20260507080003 12 88 3.2 6.4 0.00 0.00 0.00 81 1016.7
20260507075523 12 80 3.2 6.4 0.00 0.00 0.00 81 1016.6
20260507075023 12 84 1.6 6.4 0.00 0.00 0.00 81 1016.6
20260507074502 12 80 3.2 6.4 0.00 0.00 0.00 81 1016.5
20260507074024 12 81 3.2 6.4 0.00 0.00 0.00 82 1016.4
20260507073503 12 88 1.6 6.4 0.00 0.00 0.00 82 1016.5
20260507073002 12 71 1.6 8.0 0.00 0.00 0.00 82 1016.4
20260507072523 11 73 1.6 8.0 0.00 0.00 0.00 82 1016.4
20260507072002 11 78 1.6 4.8 0.00 0.00 0.00 82 1016.4
20260507071502 11 76 1.6 4.8 0.00 0.00 0.00 82 1016.3
20260507071003 11 76 1.6 4.8 0.00 0.00 0.00 82 1016.3
20260507070524 11 77 1.6 4.8 0.00 0.00 0.00 82 1016.2
20260507070024 10 52 1.6 4.8 0.00 0.00 0.00 81 1016.3
20260507065502 10 25 0.0 4.8 0.00 0.00 0.00 81 1016.4
20260507065002 10 13 1.6 8.0 0.00 0.00 0.00 81 1016.3
20260507064502 10 18 1.6 8.0 0.00 0.00 0.00 81 1016.4
20260507064023 10 38 1.6 6.4 0.00 0.00 0.00 81 1016.5
20260507063502 9 35 1.6 6.4 0.00 0.00 0.00 81 1016.5
20260507063003 9 6 1.6 6.4 0.00 0.00 0.00 81 1016.4
20260507062502 9 5 1.6 6.4 0.00 0.00 0.00 80 1016.3
20260507062023 8 7 1.6 6.4 0.00 0.00 0.00 80 1016.4
20260507061502 8 3 1.6 8.0 0.00 0.00 0.00 80 1016.3
20260507061003 8 2 1.6 8.0 0.00 0.00 0.00 80 1016.3
20260507060503 8 356 1.6 4.8 0.00 0.00 0.00 80 1016.2
20260507060003 8 10 1.6 6.4 0.00 0.00 0.00 79 1016.3
20260507055503 8 13 1.6 6.4 0.00 0.00 0.00 79 1016.2
20260507055003 8 11 1.6 6.4 0.00 0.00 0.00 79 1016.0
20260507054503 8 15 1.6 6.4 0.00 0.00 0.00 79 1016.0
20260507054024 8 24 1.6 6.4 0.00 0.00 0.00 79 1016.0
20260507053503 8 23 1.6 8.0 0.00 0.00 0.00 79 1016.0
20260507053003 8 17 1.6 8.0 0.00 0.00 0.00 78 1015.9
20260507052523 8 11 1.6 6.4 0.00 0.00 0.00 78 1015.8
20260507052002 8 15 1.6 4.8 0.00 0.00 0.00 78 1015.9
20260507051502 8 15 1.6 6.4 0.00 0.00 0.00 78 1015.8
20260507051003 8 8 1.6 8.0 0.00 0.00 0.00 78 1015.9
20260507050503 8 13 1.6 8.0 0.00 0.00 0.00 78 1015.8
20260507050003 8 25 1.6 8.0 0.00 0.00 0.00 78 1015.9
20260507045503 8 35 1.6 6.4 0.00 0.00 0.00 78 1015.8
20260507045003 8 21 1.6 8.0 0.00 0.00 0.00 78 1015.7
20260507044524 8 15 1.6 8.0 0.00 0.00 0.00 77 1015.7
20260507044024 8 27 1.6 8.0 0.00 0.00 0.00 77 1015.6
20260507043524 8 32 3.2 6.4 0.00 0.00 0.00 77 1015.6
20260507043024 8 29 1.6 6.4 0.00 0.00 0.00 77 1015.6
20260507042523 8 18 1.6 8.0 0.00 0.00 0.00 77 1015.6
20260507042002 8 30 1.6 8.0 0.00 0.00 0.00 77 1015.6
20260507041502 8 22 1.6 11.3 0.00 0.00 0.00 77 1015.6
20260507041003 8 30 1.6 11.3 0.00 0.00 0.00 77 1015.7
20260507040503 8 35 1.6 8.0 0.00 0.00 0.00 77 1015.6
20260507040003 8 14 3.2 8.0 0.00 0.00 0.00 77 1015.6
20260507035503 8 8 3.2 12.9 0.00 0.00 0.00 77 1015.6
20260507035003 8 16 3.2 12.9 0.00 0.00 0.00 77 1015.6
20260507034503 8 27 1.6 12.9 0.00 0.00 0.00 77 1015.6
20260507034003 8 24 1.6 6.4 0.00 0.00 0.00 77 1015.6
20260507033503 8 24 1.6 6.4 0.00 0.00 0.00 77 1015.6
20260507033003 8 24 1.6 6.4 0.00 0.00 0.00 77 1015.6
20260507032503 8 20 1.6 6.4 0.00 0.00 0.00 77 1015.6
20260507032003 8 11 1.6 4.8 0.00 0.00 0.00 77 1015.6
20260507031502 8 5 1.6 8.0 0.00 0.00 0.00 77 1015.6
20260507031002 8 7 1.6 8.0 0.00 0.00 0.00 77 1015.6
20260507030503 8 10 1.6 4.8 0.00 0.00 0.00 77 1015.6
20260507030003 9 24 1.6 4.8 0.00 0.00 0.00 77 1015.6
20260507025503 9 30 1.6 4.8 0.00 0.00 0.00 77 1015.5
20260507025024 9 31 1.6 4.8 0.00 0.00 0.00 77 1015.5
20260507024503 9 31 0.0 4.8 0.00 0.00 0.00 77 1015.5
20260507024024 9 357 1.6 4.8 0.00 0.00 0.00 77 1015.4
20260507023502 9 352 1.6 8.0 0.00 0.00 0.00 77 1015.4
20260507023002 9 357 1.6 8.0 0.00 0.00 0.00 78 1015.4
20260507022503 9 4 3.2 8.0 0.00 0.00 0.00 78 1015.4
20260507022002 9 6 3.2 8.0 0.00 0.00 0.00 78 1015.5
20260507021503 10 15 1.6 6.4 0.00 0.00 0.00 78 1015.4
20260507021003 10 17 1.6 6.4 0.00 0.00 0.00 78 1015.4
20260507020524 10 20 1.6 6.4 0.00 0.00 0.00 78 1015.5
20260507020024 10 27 0.0 4.8 0.00 0.00 0.00 79 1015.4
20260507015503 10 9 1.6 4.8 0.00 0.00 0.00 79 1015.5
20260507015003 10 3 1.6 6.4 0.00 0.00 0.00 79 1015.5
20260507014503 10 3 1.6 6.4 0.00 0.00 0.00 79 1015.5
20260507014002 10 6 0.0 3.2 0.00 0.00 0.00 79 1015.4
20260507013503 10 358 1.6 4.8 0.00 0.00 0.00 79 1015.5
20260507013002 10 353 1.6 4.8 0.00 0.00 0.00 78 1015.5
20260507012502 10 336 0.0 4.8 0.00 0.00 0.00 78 1015.5
20260507012002 10 0 0.0 0.0 0.00 0.00 0.00 78 1015.5
20260507011524 10 0 0.0 0.0 0.00 0.00 0.00 78 1015.6
20260507011003 10 0 0.0 0.0 0.00 0.00 0.00 78 1015.5
20260507010524 10 336 0.0 1.6 0.00 0.00 0.00 78 1015.5
20260507010003 10 336 0.0 3.2 0.00 0.00 0.00 79 1015.5
20260507005503 10 336 0.0 3.2 0.00 0.00 0.00 79 1015.5
20260507005003 10 0 0.0 0.0 0.00 0.00 0.00 79 1015.4
20260507004503 10 0 0.0 0.0 0.00 0.00 0.00 79 1015.5
20260507004003 10 336 0.0 1.6 0.00 0.00 0.00 79 1015.5
20260507003503 10 336 0.0 1.6 0.00 0.00 0.00 79 1015.6
20260507003003 10 335 0.0 1.6 0.00 0.00 0.00 79 1015.6
20260507002503 10 335 0.0 3.2 0.00 0.00 0.00 79 1015.6
20260507002003 10 330 0.0 3.2 0.00 0.00 0.00 79 1015.6
20260507001503 10 326 0.0 3.2 0.00 0.00 0.00 79 1015.6
20260507001003 10 322 0.0 4.8 0.00 0.00 0.00 79 1015.6
20260507000503 10 321 1.6 4.8 0.00 0.00 0.00 79 1015.6
20260507000003 10 321 0.0 4.8 0.00 0.00 0.00 79 1015.7
20260506235502 10 330 0.0 1.6 0.00 0.00 0.00 79 1015.6
20260506235003 10 330 0.0 3.2 0.00 0.00 0.00 79 1015.7
20260506234503 10 330 0.0 3.2 0.00 0.00 0.00 79 1015.6
20260506234003 10 329 0.0 1.6 0.00 0.00 0.00 79 1015.6
20260506233503 10 329 0.0 1.6 0.00 0.00 0.00 79 1015.5
20260506233024 10 327 0.0 4.8 0.00 0.00 0.00 78 1015.6
20260506232503 10 326 0.0 4.8 0.00 0.00 0.00 78 1015.6
20260506232024 10 0 0.0 0.0 0.00 0.00 0.00 78 1015.6
20260506231503 10 0 0.0 0.0 0.00 0.00 0.00 78 1015.6
20260506231003 10 0 0.0 0.0 0.00 0.00 0.00 78 1015.5
20260506230503 10 0 0.0 0.0 0.00 0.00 0.00 78 1015.5
20260506230003 10 0 0.0 0.0 0.00 0.00 0.00 78 1015.5
20260506225503 10 0 0.0 0.0 0.00 0.00 0.00 78 1015.6
20260506225003 10 0 0.0 0.0 0.00 0.00 0.00 78 1015.6
20260506224503 10 0 0.0 0.0 0.00 0.00 0.00 78 1015.6
20260506224003 10 0 0.0 0.0 0.00 0.00 0.00 78 1015.6
20260506223503 11 0 0.0 0.0 0.00 0.00 0.00 78 1015.6
20260506223003 11 0 0.0 0.0 0.00 0.00 0.00 78 1015.6
20260506222503 11 0 0.0 0.0 0.00 0.00 0.00 78 1015.6
20260506222003 11 0 0.0 0.0 0.00 0.00 0.00 78 1015.6
20260506221503 11 0 0.0 0.0 0.00 0.00 0.00 78 1015.6
20260506221003 11 0 0.0 0.0 0.00 0.00 0.00 78 1015.5
20260506220503 11 0 0.0 0.0 0.00 0.00 0.00 78 1015.5
20260506220003 11 0 0.0 0.0 0.00 0.00 0.00 78 1015.6
20260506215503 11 0 0.0 0.0 0.00 0.00 0.00 78 1015.5
20260506215024 11 0 0.0 0.0 0.00 0.00 0.00 77 1015.5
20260506214503 11 0 0.0 0.0 0.00 0.00 0.00 77 1015.5
20260506214003 11 0 0.0 0.0 0.00 0.00 0.00 77 1015.4
20260506213503 11 0 0.0 0.0 0.00 0.00 0.00 77 1015.4
20260506213003 11 0 0.0 0.0 0.00 0.00 0.00 77 1015.5
20260506212503 11 0 0.0 0.0 0.00 0.00 0.00 77 1015.4
20260506212003 11 248 0.0 3.2 0.00 0.00 0.00 77 1015.5
20260506211503 11 248 0.0 4.8 0.00 0.00 0.00 76 1015.5
20260506211003 11 249 0.0 4.8 0.00 0.00 0.00 76 1015.5
20260506210502 11 250 0.0 4.8 0.00 0.00 0.00 76 1015.5
20260506210003 11 253 1.6 4.8 0.00 0.00 0.00 76 1015.3
20260506205503 11 246 1.6 4.8 0.00 0.00 0.00 75 1015.4
20260506205003 11 243 1.6 6.4 0.00 0.00 0.00 75 1015.3
20260506204503 11 241 3.2 6.4 0.00 0.00 0.00 75 1015.2
20260506204024 11 240 3.2 6.4 0.00 0.00 0.00 75 1015.2
20260506203503 11 244 3.2 6.4 0.00 0.00 0.00 75 1015.2
20260506203003 11 246 3.2 6.4 0.00 0.00 0.00 75 1015.1
20260506202503 11 242 1.6 4.8 0.00 0.00 0.00 75 1015.2
20260506202024 11 237 1.6 4.8 0.00 0.00 0.00 74 1015.2
20260506201503 11 241 1.6 4.8 0.00 0.00 0.00 74 1015.1
20260506201003 11 237 3.2 9.7 0.00 0.00 0.00 74 1015.1
20260506200503 11 236 3.2 9.7 0.00 0.00 0.00 74 1015.1
20260506200024 11 240 3.2 6.4 0.00 0.00 0.00 74 1015.0
20260506195503 11 241 1.6 4.8 0.00 0.00 0.00 74 1015.0
20260506195003 12 239 1.6 6.4 0.00 0.00 0.00 74 1015.0
20260506194504 12 232 1.6 6.4 0.00 0.00 0.00 74 1015.0
20260506194003 12 230 1.6 6.4 0.00 0.00 0.00 74 1014.9
20260506193503 12 236 3.2 8.0 0.00 0.00 0.00 74 1014.8
20260506193003 12 234 3.2 8.0 0.00 0.00 0.00 73 1014.9
20260506192503 12 228 3.2 8.0 0.00 0.00 0.00 73 1014.8
20260506192024 12 226 3.2 11.3 0.00 0.00 0.00 73 1014.7
20260506191503 12 229 4.8 11.3 0.00 0.00 0.00 73 1014.8
20260506191003 12 231 3.2 9.7 0.00 0.00 0.00 73 1014.7
20260506190503 12 237 3.2 8.0 0.00 0.00 0.00 73 1014.6
20260506190003 12 241 3.2 9.7 0.00 0.00 0.00 73 1014.6
20260506185503 12 240 3.2 9.7 0.00 0.00 0.00 72 1014.5
20260506185003 12 236 3.2 8.0 0.00 0.00 0.00 72 1014.5
20260506184503 12 223 3.2 9.7 0.00 0.00 0.00 72 1014.5
20260506184003 12 214 4.8 11.3 0.00 0.00 0.00 72 1014.5
20260506183503 12 218 4.8 11.3 0.00 0.00 0.00 72 1014.5
20260506183003 12 221 4.8 8.0 0.00 0.00 0.00 71 1014.4
20260506182503 12 217 4.8 9.7 0.00 0.00 0.00 71 1014.4
20260506182003 12 220 4.8 9.7 0.00 0.00 0.00 70 1014.4
20260506181524 13 222 4.8 11.3 0.00 0.00 0.00 70 1014.4
20260506181003 13 226 4.8 11.3 0.00 0.00 0.00 70 1014.4
20260506180503 13 226 4.8 11.3 0.00 0.00 0.00 69 1014.3
20260506180004 13 223 4.8 8.0 0.00 0.00 0.00 69 1014.3
20260506175524 13 230 4.8 8.0 0.00 0.00 0.00 68 1014.3
20260506175003 13 231 3.2 8.0 0.00 0.00 0.00 68 1014.3
20260506174503 13 216 3.2 9.7 0.00 0.00 0.00 68 1014.3
20260506174003 13 219 4.8 9.7 0.00 0.00 0.00 67 1014.2
20260506173503 13 222 3.2 6.4 0.00 0.00 0.00 67 1014.2
20260506173003 13 223 3.2 8.0 0.00 0.00 0.00 67 1014.1
20260506172524 13 214 4.8 11.3 0.00 0.00 0.00 66 1014.1
20260506172003 13 205 4.8 11.3 0.00 0.00 0.00 66 1014.1
20260506171503 13 221 4.8 9.7 0.00 0.00 0.00 64 1014.1
20260506171003 13 215 4.8 9.7 0.00 0.00 0.00 64 1014.1
20260506170503 13 207 4.8 9.7 0.00 0.00 0.00 64 1014.1
20260506170003 13 219 4.8 14.5 0.00 0.00 0.00 64 1014.1
20260506165503 14 222 4.8 14.5 0.00 0.00 0.00 63 1014.2
20260506165003 14 229 4.8 11.3 0.00 0.00 0.00 63 1014.2
20260506164524 14 219 4.8 11.3 0.00 0.00 0.00 62 1014.2
20260506164003 14 194 6.4 12.9 0.00 0.00 0.00 61 1014.2
20260506163503 14 186 6.4 14.5 0.00 0.00 0.00 60 1014.2
20260506163003 15 199 4.8 14.5 0.00 0.00 0.00 61 1014.2
20260506162503 15 217 4.8 9.7 0.00 0.00 0.00 61 1014.2
20260506162024 15 203 6.4 14.5 0.00 0.00 0.00 60 1014.2
20260506161524 15 197 6.4 14.5 0.00 0.00 0.00 60 1014.2
20260506161003 15 201 6.4 16.1 0.00 0.00 0.00 62 1014.2
20260506160503 15 197 6.4 16.1 0.00 0.00 0.00 62 1014.2
20260506160025 15 191 6.4 14.5 0.00 0.00 0.00 62 1014.2
20260506155503 16 187 8.0 14.5 0.00 0.00 0.00 62 1014.1
20260506155003 16 187 6.4 14.5 0.00 0.00 0.00 62 1014.2
20260506154503 16 196 4.8 12.9 0.00 0.00 0.00 63 1014.2
20260506154024 16 198 6.4 12.9 0.00 0.00 0.00 62 1014.2
20260506153524 16 204 6.4 12.9 0.00 0.00 0.00 61 1014.2
20260506153003 16 206 4.8 11.3 0.00 0.00 0.00 62 1014.3
20260506152503 16 196 6.4 11.3 0.00 0.00 0.00 61 1014.2
20260506152003 16 205 6.4 11.3 0.00 0.00 0.00 60 1014.2
20260506151503 17 205 6.4 14.5 0.00 0.00 0.00 59 1014.3
20260506151003 17 194 6.4 14.5 0.00 0.00 0.00 59 1014.3
20260506150503 17 196 6.4 12.9 0.00 0.00 0.00 58 1014.3
20260506150003 17 201 6.4 11.3 0.00 0.00 0.00 58 1014.2
20260506145503 17 216 6.4 12.9 0.00 0.00 0.00 60 1014.3